Date String (YYYY-MM-DD hh:mm:ss) UTC,Instrument flags,Ambient pressure (hPa),Sample flow (lpm),Bypass flow (lpm),Sample temperature (°C),Ambient temperature (°C),ASC tube jacket temperature (°C),LED temperature (°C),Box temperature (°C),Sample RH (%),Span deviation,Mass concentration (μg/m³),Mass concentration (μg/m³),Mass concentration (μg/m³)
DateTimeUTC,F1_M11,P_M11,Q1_M11,Q2_M11,T1_M11,T2_M11,T3_M11,T4_M11,T5_M11,U1_M11,ZSPAN_M11,X0_M11,X2_M11,X1_M11
2022-06-28 05:00:00,,0834.5,5.00,0.00,29.7,28.7,00.0,38.4,31.6,21.3,0000.0,0007.81,0003.21,0002.46
2022-06-28 05:01:00,,0834.5,5.01,0.00,29.7,28.7,00.0,38.4,31.6,21.4,0000.0,0007.68,0003.19,0002.45
2022-06-28 05:02:00,,0834.5,5.00,0.00,29.7,28.8,00.0,38.4,31.6,21.3,0000.0,0007.29,0003.18,0002.45
2022-06-28 05:03:00,,0834.5,4.99,0.00,29.7,28.8,00.0,38.5,31.7,21.2,0000.0,0006.86,0003.18,0002.44
2022-06-28 05:04:00,,0834.4,5.00,0.00,29.7,28.8,00.0,38.5,31.7,21.0,0000.0,0006.35,0003.18,0002.44
2022-06-28 05:05:00,,0834.4,5.00,0.00,29.8,28.6,00.0,38.5,31.7,21.0,0000.0,0006.38,0003.21,0002.44
2022-06-28 05:06:00,,0834.5,5.01,0.00,29.7,27.8,00.0,38.4,31.4,21.1,0000.0,0006.38,0003.21,0002.44
2022-06-28 05:07:00,,0834.4,5.00,0.00,29.6,27.4,00.0,38.3,31.3,21.2,0000.0,0006.26,0003.19,0002.43
2022-06-28 05:08:00,,0834.4,5.00,0.00,29.5,27.3,00.0,38.3,31.2,21.4,0000.0,0006.02,0003.17,0002.42
2022-06-28 05:09:00,,0834.5,5.00,0.00,29.5,27.3,00.0,38.3,31.2,21.4,0000.0,0006.39,0003.19,0002.42
2022-06-28 05:10:00,,0834.4,5.00,0.00,29.4,27.4,00.0,38.3,31.2,21.5,0000.0,0006.35,0003.17,0002.41
2022-06-28 05:11:00,,0834.4,5.01,0.00,29.4,27.5,00.0,38.3,31.2,21.6,0000.0,0006.57,0003.14,0002.39
2022-06-28 05:12:00,,0834.5,5.00,0.00,29.4,27.6,00.0,38.3,31.2,21.5,0000.0,0007.54,0003.14,0002.37
2022-06-28 05:13:00,,0834.5,5.00,0.00,29.4,27.8,00.0,38.3,31.2,21.6,0000.0,0007.29,0003.12,0002.36
2022-06-28 05:14:00,,0834.5,5.00,0.00,29.4,27.9,00.0,38.3,31.2,21.7,0000.0,0007.15,0003.09,0002.35
2022-06-28 05:15:00,,0834.5,5.03,0.00,29.4,28.0,00.0,38.3,31.2,21.7,0000.0,0006.97,0003.06,0002.33
2022-06-28 05:16:00,,0834.5,5.00,0.00,29.4,28.1,00.0,38.3,31.3,21.6,0000.0,0006.91,0003.04,0002.31
2022-06-28 05:17:00,,0834.4,4.99,0.00,29.4,28.1,00.0,38.3,31.3,21.5,0000.0,0007.17,0003.09,0002.31
2022-06-28 05:18:00,,0834.4,5.01,0.00,29.4,28.2,00.0,38.3,31.3,21.4,0000.0,0007.26,0003.11,0002.30
2022-06-28 05:19:00,,0834.4,5.00,0.00,29.4,28.3,00.0,38.3,31.3,21.3,0000.0,0007.34,0003.11,0002.29
2022-06-28 05:20:00,,0834.4,5.02,0.00,29.5,28.3,00.0,38.3,31.4,21.2,0000.0,0007.41,0003.06,0002.28
2022-06-28 05:21:00,,0834.3,5.00,0.00,29.5,28.4,00.0,38.3,31.4,21.2,0000.0,0007.49,0003.10,0002.27
2022-06-28 05:22:00,,0834.2,4.99,0.00,29.5,28.4,00.0,38.3,31.4,21.2,0000.0,0007.38,0003.14,0002.27
2022-06-28 05:23:00,,0834.3,4.99,0.00,29.5,28.5,00.0,38.3,31.4,21.1,0000.0,0006.46,0003.13,0002.27
2022-06-28 05:24:00,,0834.3,5.00,0.00,29.5,28.5,00.0,38.3,31.4,21.0,0000.0,0006.48,0003.13,0002.27
2022-06-28 05:25:00,,0834.3,5.00,0.00,29.5,28.5,00.0,38.3,31.5,21.1,0000.0,0007.21,0003.12,0002.27
2022-06-28 05:26:00,,0834.3,5.00,0.00,29.6,28.6,00.0,38.4,31.5,21.1,0000.0,0007.44,0003.13,0002.28
2022-06-28 05:27:00,,0834.3,5.00,0.00,29.6,28.6,00.0,38.4,31.5,21.1,0000.0,0007.39,0003.11,0002.28
2022-06-28 05:28:00,,0834.3,5.00,0.00,29.6,28.6,00.0,38.4,31.5,21.1,0000.0,0007.08,0003.03,0002.27
2022-06-28 05:29:00,,0834.3,5.00,0.00,29.6,28.6,00.0,38.4,31.5,21.0,0000.0,0006.99,0003.00,0002.27
2022-06-28 05:30:00,,0834.3,4.99,0.00,29.6,28.7,00.0,38.4,31.6,21.0,0000.0,0007.03,0003.00,0002.27
2022-06-28 05:31:00,,0834.4,5.01,0.00,29.7,28.7,00.0,38.4,31.6,21.0,0000.0,0006.67,0003.08,0002.28
2022-06-28 05:32:00,,0834.4,5.00,0.00,29.7,28.7,00.0,38.5,31.6,21.0,0000.0,0006.91,0003.09,0002.29
2022-06-28 05:33:00,,0834.4,4.99,0.00,29.7,28.7,00.0,38.5,31.6,21.0,0000.0,0007.85,0003.12,0002.29
2022-06-28 05:34:00,,0834.4,4.99,0.00,29.7,28.7,00.0,38.5,31.6,21.0,0000.0,0007.70,0003.13,0002.30
2022-06-28 05:35:00,,0834.4,5.00,0.00,29.7,28.7,00.0,38.5,31.6,20.9,0000.0,0007.78,0003.13,0002.32
2022-06-28 05:36:00,,0834.3,5.00,0.00,29.7,28.7,00.0,38.5,31.6,20.9,0000.0,0008.00,0003.13,0002.31
2022-06-28 05:37:00,,0834.3,4.99,0.00,29.7,28.8,00.0,38.5,31.7,20.9,0000.0,0007.81,0003.12,0002.30
2022-06-28 05:38:00,,0834.3,5.00,0.00,29.8,28.8,00.0,38.5,31.7,20.8,0000.0,0007.84,0003.11,0002.29
2022-06-28 05:39:00,,0834.3,5.01,0.00,29.8,28.8,00.0,38.5,31.7,20.8,0000.0,0007.91,0003.14,0002.30
2022-06-28 05:40:00,,0834.2,5.00,0.00,29.8,28.8,00.0,38.6,31.7,20.7,0000.0,0007.92,0003.15,0002.30
2022-06-28 05:41:00,,0834.3,5.00,0.00,29.8,28.8,00.0,38.6,31.7,20.7,0000.0,0007.92,0003.16,0002.31
2022-06-28 05:42:00,,0834.3,4.99,0.00,29.8,28.8,00.0,38.6,31.7,20.6,0000.0,0007.72,0003.11,0002.31
2022-06-28 05:43:00,,0834.3,5.00,0.00,29.8,28.9,00.0,38.6,31.8,20.6,0000.0,0007.60,0003.11,0002.32
2022-06-28 05:44:00,,0834.3,5.00,0.00,29.9,28.9,00.0,38.6,31.8,20.4,0000.0,0006.36,0003.02,0002.32
2022-06-28 05:45:00,,0834.2,5.00,0.00,29.9,28.7,00.0,38.6,31.7,20.0,0000.0,0007.80,0003.02,0002.33
2022-06-28 05:46:00,,0834.2,5.00,0.00,29.8,27.8,00.0,38.5,31.5,20.0,0000.0,0008.20,0003.03,0002.32
2022-06-28 05:47:00,,0834.1,5.02,0.00,29.7,27.3,00.0,38.5,31.3,20.0,0000.0,0007.46,0003.06,0002.32
2022-06-28 05:48:00,,0834.1,5.00,0.00,29.6,27.3,00.0,38.5,31.2,20.1,0000.0,0007.76,0003.07,0002.34
2022-06-28 05:49:00,,0834.1,5.00,0.00,29.6,27.3,00.0,38.4,31.2,20.2,0000.0,0007.76,0003.04,0002.35
2022-06-28 05:50:00,,0834.1,5.00,0.00,29.5,27.4,00.0,38.4,31.2,20.3,0000.0,0007.68,0003.01,0002.35
2022-06-28 05:51:00,,0834.1,5.00,0.00,29.5,27.5,00.0,38.4,31.2,20.3,0000.0,0007.75,0003.01,0002.33
2022-06-28 05:52:00,,0834.1,4.99,0.00,29.5,27.6,00.0,38.4,31.2,20.4,0000.0,0007.81,0003.02,0002.33
2022-06-28 05:53:00,,0834.1,5.00,0.00,29.5,27.8,00.0,38.4,31.3,20.5,0000.0,0007.87,0003.05,0002.33
2022-06-28 05:54:00,,0834.1,5.00,0.00,29.5,27.9,00.0,38.4,31.3,20.6,0000.0,0007.97,0003.08,0002.32
2022-06-28 05:55:00,,0834.1,4.99,0.00,29.5,28.0,00.0,38.4,31.3,20.6,0000.0,0007.92,0003.07,0002.32
2022-06-28 05:56:00,,0834.1,5.00,0.00,29.5,28.1,00.0,38.4,31.3,20.7,0000.0,0006.81,0003.04,0002.31
2022-06-28 05:57:00,,0834.1,4.99,0.00,29.5,28.1,00.0,38.4,31.3,20.7,0000.0,0006.42,0003.06,0002.31
2022-06-28 05:58:00,,0834.1,5.01,0.00,29.5,28.2,00.0,38.4,31.4,20.8,0000.0,0006.36,0003.02,0002.31
2022-06-28 05:59:00,,0834.1,4.99,0.00,29.5,28.3,00.0,38.4,31.4,20.8,0000.0,0005.78,0003.00,0002.31
